Location: Te Maire Creek
(41.1333°S, 175.9167°E)
Time: 02:09:51
(UTC+00:00)

Cosmos 1461 - Pass Details

Date: 19 May 2024
Orbit: 499 x 581 km, 65.0° (Epoch: 18 June)

Event Time Altitude Azimuth Distance (km) Brightness Sun altitude
Exits shadow 18:37:44 - 231° (SW) 1,987 5.1 -8.5°
Reaches altitude 10° 18:37:52 10° 232° (SW) 1,935 5.0 -8.5°
Maximum altitude 18:41:45 31° 294° (WNW) 1,036 3.9 -7.8°
Drops below altitude 10° 18:45:34 10° 356° (N) 1,901 5.8 -7.1°
Sets 18:47:56 0° 6° (N) 2,783 6.8 -6.7°
